Regional Weather Roundup
Issued by NWS State College, PA

Home | Current Version | Previous Version | Text Only | Print | Product List | Glossary On
Versions: 1 2 3 4 5 6 7 8 9 10 11 12 13 14 15 16 17 18 19 20 21 22 23 24 25 26 27 28 29 30 31 32 33 34 35 36 37 38 39 40 41 42 43 44 45 46 47 48 49 50
000
ASUS41 KCTP 040710
RWRCTP

REGIONAL WEATHER ROUNDUP
NATIONAL WEATHER SERVICE STATE COLLEGE PA
300 AM EDT SAT JUL 04 2015

Note: "fair" indicates few or no clouds below 12,000 feet with no
significant weather and/or obstructions to visibility.

* = STATION THAT DOES NOT REPORT PRECIPITATION /E.G. RAIN...SNOW...ETC/
    THUNDER OR FOG.

PAZ002>004-007>009-013>016-020>023-029>032-040800-
WESTERN PENNSYLVANIA

CITY           SKY/WX    TMP DP  RH WIND       PRES   REMARKS
ERIE           PTCLDY    61  52  72 SE3       29.89F
MEADVILLE      CLOUDY    65  56  72 E3        29.90F
FRANKLIN*      CLOUDY    64  61  88 E5        29.91F
NEW CASTLE     CLOUDY    67  67 100 CALM      29.89F
BEAVER COUNTY  NOT AVBL
BUTLER*        CLOUDY    64  63  94 E3        29.89F
PITTSBURGH INT CLOUDY    66  64  93 E3        29.87S FOG
PITTSBURGH     HVY RAIN  64  60  87 E5        29.86F VSB 1
INDIANA*       CLOUDY    64  63  94 CALM      29.92F FOG
LATROBE        NOT AVBL
WASHINGTON CO* NOT AVBL
$$

PAZ004>006-010>012-017>019-024>028-033>037-041-042-045-046-049>053-040800-
CENTRAL PENNSYLVANIA

CITY           SKY/WX    TMP DP  RH WIND       PRES   REMARKS
BRADFORD       LGT RAIN  62  60  93 SE3       29.94F FOG
DUBOIS         LGT RAIN  65  62  90 E5        29.91F FOG
CLEARFIELD     LGT RAIN  64  62  93 N5        29.92S FOG
JOHNSTOWN      CLOUDY    62  60  93 S7        29.91F FOG
ALTOONA        LGT RAIN  64  62  93 CALM      29.92F FOG
STATE COLLEGE  RAIN      64  64  98 CALM      29.93F
WILLIAMSPORT   RAIN      67  64  90 E5        29.92S FOG
SELINSGROVE    RAIN      66  64  93 CALM      29.93S FOG
FT INDIANTOWN  RAIN      65  63  94 W2        29.95R FOG
CAPITAL CITY   LGT RAIN  69  65  86 S6        29.93S
HARRISBURG     LGT RAIN  69  62  78 SE3       29.92F
YORK           LGT RAIN  68  65  90 CALM      29.93S
$$

PAZ038>040-043-044-047-048-054-055-060>062-067>071-040800-
EASTERN PENNSYLVANIA

CITY           SKY/WX    TMP DP  RH WIND       PRES   REMARKS
SCRANTON       LGT RAIN  68  60  75 E5        29.95F
MOUNT POCONO   NOT AVBL
ALLENTOWN      CLOUDY    71  61  70 CALM      29.95F
QUAKERTOWN*    CLOUDY    68  63  83 CALM      29.96F
READING        CLOUDY    71  61  70 S7        29.93S
LANCASTER      CLOUDY    65  61  87 E5        29.94S
COATESVILLE    CLOUDY    66  66 100 CALM      29.96S FOG
POTTSTOWN      CLOUDY    69  64  84 CALM      29.96F
BLUE BELL      CLOUDY    68  64  88 CALM      29.94S
DOYLESTOWN     CLOUDY    67  63  87 CALM      29.95F
WILLOW GROVE   NOT AVBL
NORTH PHILA    CLOUDY    70  64  81 CALM      29.96F
PHILADELPHIA   CLOUDY    71  65  81 E3        29.94F
$$


USA.gov is the U.S. government's official web portal to all federal, state and local government web resources and services.